Location: Hickory_Viewmont
(35.7830°N, 81.3170°W)
Time: 09:41:04
(UTC-04:00)

Daily predictions for brighter satellites

Satellite Brightness Start Highest point End
(mag) Time Altitude Azimuth Time Altitude Azimuth Time Altitude Azimuth
CZ-3B DEB 4.4 20:56:37 10° WSW 21:05:02 61° NW 21:17:22 10° NE
Cosmos 2219 Rocket 2.2 21:06:43 10° NNW 21:12:25 82° ENE 21:18:03 10° SSE
Cosmos 1190 Rocket 4.5 21:11:14 10° SSW 21:16:28 68° WNW 21:21:44 10° NNE
Resurs 1-3 4.1 21:13:50 10° S 21:18:10 64° WSW 21:22:32 10° NNW
SEDSat Delta rocket 3.7 21:14:06 10° W 21:18:19 38° SSW 21:22:10 10° ESE
ATLAS 2AS CENTAUR R/B 3.8 21:11:24 10° NW 21:18:50 47° WSW 21:25:40 10° S
Cosmos 676 Rocket 4.0 21:14:57 10° S 21:20:11 75° ESE 21:25:23 10° NNE
Spot 2 Rocket 3.9 21:16:22 10° S 21:21:21 65° WSW 21:26:24 10° NNW
NOSS 3-4 (A) 4.5 21:15:20 10° NNW 21:22:04 44° NE 21:29:10 10° ESE
NOSS 3-4 (C) 4.5 21:15:27 10° NNW 21:22:09 43° NE 21:29:14 10° ESE
Cosmos 1934 Rocket 4.0 21:17:09 10° N 21:23:20 80° E 21:29:24 10° S
CZ-4B DEB 3.7 21:20:45 10° SE 21:23:22 28° ENE 21:25:59 10° NNE
Cosmos 1184 Rocket 3.7 21:23:14 10° SSE 21:26:14 32° E 21:29:16 10° NNE
SAR-Lupe-4 4.3 21:23:47 10° SE 21:27:04 35° ENE 21:30:22 10° N
SL-19 R/B 4.3 21:23:53 10° SSE 21:29:41 85° ENE 21:35:17 10° NNW
Cosmos 1605 Rocket 4.1 21:25:29 10° N 21:31:41 63° E 21:37:56 10° SSE
DELTA 2 R/B (1) 4.3 21:27:07 10° WNW 21:32:25 44° SSW 21:37:26 11° SE
Cosmos 1939 Rocket 2.8 21:29:22 10° SSE 21:33:17 71° ENE 21:37:20 10° N
Cosmos 2082 3.7 21:28:18 10° SSW 21:33:54 89° WNW 21:39:33 10° NNE
Aureole 2 Rocket 2.7 21:36:39 10° NNW 21:40:45 89° ENE 21:44:28 11° SSE
Cosmos 2297 Rocket 2.3 21:35:54 10° SSW 21:41:33 82° WNW 21:47:14 10° NNE
Cosmos 2084 4.0 21:41:00 10° S 21:44:40 32° ESE 21:48:10 10° NE
Meteor 2-15 Rocket 4.4 21:39:03 10° S 21:45:03 68° E 21:51:04 10° NNE
Cosmos 1842 Rocket 3.5 21:41:11 10° N 21:45:35 81° E 21:49:55 10° S
Envisat 3.4 21:40:44 10° S 21:45:45 66° WSW 21:50:49 10° NNW
Meteor 1-29 2.9 21:42:25 10° NNE 21:45:51 89° ESE 21:49:17 10° SSW
Cosmos 1727 Rocket 4.0 21:39:48 10° S 21:46:04 77° E 21:52:25 10° N
SAR-Lupe-1 4.2 21:43:20 14° SSE 21:46:20 55° ENE 21:49:52 10° N
OAO 3 Rocket 4.3 21:42:21 10° W 21:46:23 29° SSW 21:49:35 14° SSE
Helios 1A 3.0 21:42:55 10° S 21:47:03 79° WSW 21:51:13 10° NNW
Cosmos 1340 Rocket 2.8 21:44:34 10° S 21:48:31 64° E 21:52:31 10° NNE
Helios 1B rocket 3.0 21:48:58 10° N 21:53:04 60° WNW 21:57:07 10° SSW
USA 32 4.0 21:48:04 10° S 21:53:17 74° E 21:58:32 10° N
Cosmos 1242 Rocket 4.2 21:51:51 10° NNE 21:54:41 20° ENE 21:56:00 17° ESE
Cosmos 1140 Rocket 3.8 21:55:09 10° SSW 22:00:18 69° WNW 22:05:27 10° NNE
Cosmos 1980 4.1 21:56:40 10° NNW 22:02:17 62° WSW 22:07:30 12° S
Cosmos 1867 3.7 22:00:29 10° S 22:05:45 54° ESE 22:11:03 10° NE
ATLAS 5 CENTAUR R/B 1.6 22:01:24 10° SSW 22:05:57 81° ESE 22:10:53 10° NNE
Lacrosse 4 Rocket 4.0 22:04:34 10° WSW 22:08:03 25° WNW 22:11:38 10° N
Atlas Centaur 2 1.7 22:05:29 10° WSW 22:08:45 34° S 22:09:45 28° SSE
Cosmos 1408 Rocket 4.4 22:07:47 23° SE 22:09:19 30° E 22:13:06 10° NNE
Cosmos 2237 Rocket 2.8 22:07:28 10° NNW 22:12:56 54° WSW 22:17:44 13° S
Tiangong 1 2.7 22:12:10 10° W 22:14:41 30° NNW 22:17:12 10° NE
YAOGAN 6 3.6 22:14:20 13° S 22:17:16 43° W 22:20:47 10° NNW
Cosmos 1726 3.8 22:16:43 10° NNE 22:19:19 18° ENE 22:19:32 18° E
Cosmos 1076 Rocket 3.5 22:16:28 19° S 22:19:28 69° E 22:23:49 10° NNE
Milstar 3 Cent rocket 3.9 22:13:16 10° W 22:20:33 51° S 22:31:25 19° ESE
Okean 3 Rocket 3.7 22:17:03 10° S 22:21:33 78° W 22:26:03 10° N
Cosmos 2227 Rocket 4.4 22:20:14 10° WSW 22:25:00 28° WNW 22:29:48 10° N
SL-08 RB Rocket 4.1 22:24:05 30° SE 22:25:56 48° ENE 22:30:22 10° N
SL-8 R/B 4.2 22:21:27 10° WNW 22:26:03 49° SW 22:28:07 29° SSE
Cosmos 1850 Rocket 4.3 22:22:40 10° SSW 22:27:48 68° WNW 22:32:59 10° NNE
Cosmos 1356 Rocket 3.3 22:25:40 22° S 22:28:21 82° E 22:32:38 10° N
Cosmos 1908 3.1 22:26:46 10° N 22:30:39 76° E 22:31:57 40° SSE
Cosmos 1674 2.7 22:29:46 23° SSW 22:32:02 76° W 22:35:48 10° N
Cosmos 2221 2.7 22:28:33 10° NNW 22:32:56 72° W 22:35:20 26° S
H-2A R/B 2.5 22:31:57 30° SE 22:34:11 49° ENE 22:39:22 10° N
SL-16 R/B 2.2 22:30:02 10° NNW 22:35:44 87° WSW 22:38:37 30° SSE
YAOGAN 11 4.1 22:34:30 35° SSE 22:36:20 77° ENE 22:40:51 10° N
OAO 1 Rocket 4.4 22:31:22 10° WSW 22:36:41 66° SSE 22:40:14 21° E
KORONAS-FOTON 3.6 22:37:54 41° S 22:39:10 83° E 22:42:59 10° N
SPOT 5 2.8 22:39:46 35° SSE 22:41:47 84° ENE 22:46:46 10° NNW
ARGOS 3.1 22:39:06 29° SSE 22:41:58 89° WSW 22:47:25 10° NNW
USA 245 2.6 22:42:55 73° S 22:43:12 88° WSW 22:46:50 10° NNW
USA 234 3.7 22:37:01 10° NE 22:43:27 62° NW 22:49:52 10° WSW
Cosmos 1766 Rocket 3.4 22:41:51 34° S 22:43:41 86° E 22:48:02 10° N
ERS-1 Rocket 3.8 22:41:41 19° SSW 22:45:03 46° W 22:49:55 10° NNW
Cosmos 1818 3.5 22:39:41 10° NNW 22:45:09 79° ENE 22:47:13 39° SE
MetOp-A 4.5 22:43:19 24° S 22:46:32 61° WSW 22:51:50 10° NNW
Lacrosse 5 3.5 22:44:21 10° NNW 22:48:31 25° NE 22:51:05 17° ENE
Cosmos 2228 Rocket 3.8 22:47:13 10° N 22:51:29 37° E 22:51:56 36° E
Sakura Rocket 4.1 22:49:44 10° WSW 22:56:28 42° S 22:57:10 40° SSE
Cosmos 1328 Rocket 3.9 22:52:24 10° N 22:56:34 44° E 22:56:48 44° E
Cosmos 2061 Rocket 4.1 22:51:07 10° N 22:57:30 76° W 23:01:00 29° S
MINOTAUR IV R/B 4.5 22:56:35 37° SSW 22:58:23 89° E 23:02:56 10° NNE
Cosmos 1515 Rocket 4.4 22:54:54 10° NNE 22:58:48 33° ENE 22:58:48 33° ENE
Cosmos 2100 Rocket 4.4 22:53:26 10° NNW 22:59:38 60° W 23:03:34 23° SSW
Cosmos 1743 Rocket 3.6 23:00:07 55° ESE 23:00:18 56° E 23:04:32 10° NNE
RESURS DK-1 3.3 22:56:34 10° N 23:00:23 34° ENE 23:00:38 34° ENE
H-2A R/B 3.2 23:00:30 30° ENE 23:00:42 30° ENE 23:04:27 10° N
Cosmos 1459 Rocket 4.3 22:56:16 10° NNW 23:02:27 61° W 23:06:01 26° SSW
Cosmos 371 Rocket 4.1 22:59:19 10° N 23:03:46 36° ENE 23:04:22 34° E
Meteor 2-2 Rocket 4.3 22:59:31 10° N 23:05:17 70° E 23:07:00 46° SSE
Cosmos 2227 4.3 23:01:00 15° SSW 23:05:52 75° WNW 23:11:36 10° NNE
DMSP B5D2-2 3.9 23:00:38 10° NNE 23:05:53 78° ESE 23:07:30 45° S
Cosmos 2123 Rocket 3.9 23:05:26 34° S 23:08:19 88° E 23:14:33 10° N
EO 1 Delta rocket 3.9 23:08:12 48° S 23:09:32 78° W 23:14:09 10° NNW
Cosmos 1151 Rocket 3.9 23:08:14 10° NNE 23:12:00 35° ENE 23:12:00 35° ENE
CZ-4B R/B 4.3 23:09:37 10° NNE 23:14:03 35° E 23:14:03 35° E
Landsat 7 3.7 23:16:33 65° S 23:17:16 88° WSW 23:22:03 10° NNW
SL-14 R/B 3.4 23:19:16 70° W 23:19:21 70° W 23:23:19 10° N
Cosmos 1328 4.0 23:22:18 65° W 23:22:26 66° W 23:26:27 10° N
IGS 5A 3.5 23:26:45 71° NNE 23:26:45 71° NNE 23:30:36 10° N
SL-19 R/B 4.1 23:21:08 10° NNE 23:26:29 75° ESE 23:27:22 61° SSE
CZ-4 R/B 4.0 23:21:57 10° NNE 23:26:26 56° E 23:26:26 56° E
SPOT 1/Viking Rocket 4.2 23:27:38 37° SW 23:29:01 45° W 23:33:57 10° NNW
Terra 1.6 23:31:59 82° S 23:32:13 89° W 23:36:59 10° NNW
Cosmos 1486 Rocket 3.9 23:33:16 64° SSW 23:34:06 87° WNW 23:39:25 10° NNE
Cosmos 1814 Rocket 3.9 23:29:09 10° NNW 23:34:31 81° ENE 23:34:58 73° SE
Cosmos 1725 Rocket 4.1 23:28:50 10° NNW 23:35:03 70° W 23:36:52 47° SSW
Cosmos 2263 Rocket 2.0 23:38:53 70° ESE 23:39:02 70° ESE 23:44:36 10° NNE
Cosmos 1300 3.7 23:36:33 10° NNW 23:39:44 42° WNW 23:39:44 42° WNW
Cosmos 1626 3.5 23:46:13 35° NNE 23:46:13 35° NNE 23:48:28 10° N
deb Chang Zheng 4 3.8 23:43:06 10° N 23:47:09 69° NW 23:47:09 69° NW
Cosmos 841 Rocket 3.5 23:44:47 10° NNW 23:49:58 67° ENE 23:49:58 67° ENE
Tiangong 1 4.2 23:48:43 10° NW 23:49:19 13° NW 23:49:19 13° NW
Spot 4 3.9 23:52:27 70° NE 23:52:27 70° NE 23:57:00 10° N
Cosmos 332 Rocket 4.2 23:48:00 10° NNW 23:52:42 54° W 23:52:42 54° W
Cosmos 1763 Rocket 3.4 23:49:16 10° NNW 23:54:12 82° WNW 23:54:12 82° WNW
Cosmos 1726 4.3 23:51:44 10° NW 23:54:09 20° W 23:54:09 20° W
CZ-4C R/B 4.4 23:56:25 43° NNE 23:56:25 43° NNE 23:59:38 10° N
